| time (UTC) | temp C | wind direction | speed KPH | gust KPH | rain 1hr cm | rain 24hr cm | rain mn cm | humidity % | barometer mb |
| 20260506174530 | 11 | 198 | 1.6 | 3.2 | 0.00 | 0.61 | 0.56 | 92 | 1007.3 |
| 20260506173549 | 11 | 205 | 1.6 | 3.2 | 0.00 | 0.61 | 0.56 | 89 | 1007.3 |
| 20260506172529 | 11 | 284 | 1.6 | 3.2 | 0.00 | 0.61 | 0.56 | 87 | 1007.0 |
| 20260506171529 | 11 | 318 | 1.6 | 6.4 | 0.00 | 0.61 | 0.56 | 89 | 1006.9 |
| 20260506170530 | 11 | 253 | 1.6 | 3.2 | 0.00 | 0.61 | 0.56 | 89 | 1006.9 |
| 20260506165529 | 11 | 240 | 3.2 | 6.4 | 0.00 | 0.61 | 0.56 | 88 | 1006.9 |
| 20260506164530 | 12 | 272 | 1.6 | 6.4 | 0.00 | 0.61 | 0.56 | 88 | 1006.8 |
| 20260506163550 | 12 | 258 | 3.2 | 4.8 | 0.00 | 0.61 | 0.56 | 87 | 1006.7 |
| 20260506162530 | 12 | 247 | 3.2 | 6.4 | 0.00 | 0.61 | 0.56 | 86 | 1006.7 |
| 20260506161529 | 12 | 0.0 | 0.0 | 0.00 | 0.61 | 0.56 | 89 | 1006.7 | |
| 20260506160550 | 12 | 219 | 1.6 | 3.2 | 0.00 | 0.61 | 0.56 | 88 | 1006.8 |
| 20260506155530 | 11 | 222 | 1.6 | 3.2 | 0.00 | 0.61 | 0.56 | 89 | 1006.8 |
| 20260506154529 | 11 | 262 | 3.2 | 6.4 | 0.00 | 0.61 | 0.56 | 89 | 1006.8 |
| 20260506153530 | 11 | 214 | 3.2 | 8.0 | 0.00 | 0.61 | 0.56 | 89 | 1006.8 |
| 20260506152530 | 12 | 210 | 1.6 | 6.4 | 0.00 | 0.61 | 0.56 | 89 | 1006.8 |
| 20260506151530 | 11 | 210 | 1.6 | 3.2 | 0.00 | 0.61 | 0.56 | 89 | 1006.8 |
| 20260506150550 | 11 | 232 | 3.2 | 9.7 | 0.00 | 0.61 | 0.56 | 89 | 1006.7 |
| 20260506145530 | 11 | 231 | 1.6 | 4.8 | 0.00 | 0.61 | 0.56 | 90 | 1006.7 |
| 20260506144530 | 11 | 230 | 4.8 | 9.7 | 0.00 | 0.61 | 0.56 | 90 | 1006.7 |
| 20260506143529 | 11 | 229 | 4.8 | 11.3 | 0.05 | 0.61 | 0.56 | 90 | 1006.7 |
| 20260506142530 | 11 | 242 | 3.2 | 11.3 | 0.23 | 0.61 | 0.56 | 90 | 1006.7 |
| 20260506141610 | 11 | 234 | 3.2 | 8.0 | 0.23 | 0.61 | 0.56 | 91 | 1006.8 |
| 20260506140550 | 11 | 236 | 4.8 | 11.3 | 0.23 | 0.61 | 0.56 | 91 | 1006.7 |
| 20260506135542 | 11 | 237 | 3.2 | 6.4 | 0.23 | 0.61 | 0.56 | 91 | 1006.6 |
| 20260506134602 | 11 | 222 | 1.6 | 6.4 | 0.23 | 0.61 | 0.56 | 90 | 1006.5 |
| 20260506133529 | 11 | 198 | 1.6 | 4.8 | 0.20 | 0.56 | 0.51 | 91 | 1006.5 |
| 20260506132541 | 11 | 234 | 4.8 | 8.0 | 0.05 | 0.36 | 0.33 | 90 | 1006.5 |
| 20260506123548 | 12 | 234 | 3.2 | 8.0 | 0.23 | 0.36 | 0.33 | 91 | 1005.9 |
| 20260506122541 | 12 | 216 | 6.4 | 9.7 | 0.20 | 0.33 | 0.28 | 90 | 1005.7 |
| 20260506121548 | 12 | 233 | 4.8 | 9.7 | 0.13 | 0.23 | 0.20 | 91 | 1005.5 |
| 20260506120529 | 12 | 236 | 3.2 | 8.0 | 0.05 | 0.15 | 0.13 | 92 | 1005.4 |
| 20260506115528 | 13 | 217 | 4.8 | 9.7 | 0.05 | 0.15 | 0.13 | 89 | 1005.2 |
| 20260506105028 | -17 | 0.0 | 0.0 | 0.05 | 0.13 | 0.08 | |||
| 20260506102028 | 13 | 228 | 1.6 | 4.8 | 0.08 | 0.15 | 0.08 | 89 | 1004.9 |
| 20260506101028 | 13 | 234 | 4.8 | 8.0 | 0.08 | 0.15 | 0.08 | 88 | 1004.9 |
| 20260506100049 | 13 | 229 | 3.2 | 8.0 | 0.05 | 0.13 | 0.05 | 87 | 1004.9 |
| 20260506095029 | 13 | 246 | 3.2 | 4.8 | 0.05 | 0.13 | 0.05 | 86 | 1004.8 |
| 20260506094029 | 13 | 268 | 1.6 | 3.2 | 0.05 | 0.13 | 0.05 | 84 | 1004.7 |
| 20260506093053 | 13 | 278 | 3.2 | 6.4 | 0.00 | 0.08 | 0.00 | 84 | 1004.7 |
| 20260506092029 | 13 | 240 | 1.6 | 3.2 | 0.00 | 0.08 | 0.00 | 85 | 1004.6 |
| 20260506091049 | 13 | 246 | 1.6 | 3.2 | 0.00 | 0.08 | 0.00 | 85 | 1004.6 |
| 20260506090029 | 13 | 273 | 1.6 | 3.2 | 0.00 | 0.08 | 0.00 | 84 | 1004.5 |
| 20260506085029 | 13 | 273 | 1.6 | 3.2 | 0.00 | 0.08 | 0.00 | 84 | 1004.5 |
| 20260506084048 | 13 | 273 | 0.0 | 3.2 | 0.00 | 0.08 | 0.00 | 83 | 1004.5 |
| 20260506083041 | 13 | 270 | 1.6 | 3.2 | 0.00 | 0.08 | 0.00 | 84 | 1004.5 |
| 20260506082029 | 13 | 54 | 0.0 | 3.2 | 0.00 | 0.08 | 0.00 | 84 | 1004.5 |
| 20260506081029 | 13 | 52 | 0.0 | 3.2 | 0.00 | 0.08 | 0.00 | 84 | 1004.4 |
| 20260506073031 | 12 | 48 | 1.6 | 3.2 | 0.00 | 0.08 | 0.00 | 88 | 1004.5 |
| 20260506072031 | 12 | 48 | 1.6 | 3.2 | 0.00 | 0.08 | 0.00 | 89 | 1004.6 |
| 20260506071029 | 11 | 0.0 | 0.0 | 0.00 | 0.08 | 0.00 | 89 | 1004.6 | |
| 20260506062049 | 9 | 0.0 | 0.0 | 0.00 | 0.08 | 0.00 | 96 | 1004.6 | |
| 20260506061029 | 9 | 334 | 1.6 | 3.2 | 0.00 | 0.08 | 0.00 | 96 | 1004.7 |
| 20260506051029 | 8 | 0.0 | 0.0 | 0.00 | 0.08 | 0.00 | 97 | 1004.9 | |
| 20260506045029 | 8 | 0.0 | 0.0 | 0.00 | 0.08 | 0.00 | 97 | 1004.8 | |
| 20260506044029 | 7 | 0.0 | 0.0 | 0.00 | 0.08 | 0.00 | 97 | 1004.8 | |
| 20260506043049 | 7 | 0.0 | 0.0 | 0.00 | 0.08 | 0.00 | 97 | 1004.7 | |
| 20260506042049 | 8 | 0.0 | 0.0 | 0.00 | 0.08 | 0.00 | 97 | 1004.8 | |
| 20260506041031 | 7 | 296 | 1.6 | 3.2 | 0.00 | 0.08 | 0.00 | 97 | 1005.0 |
| 20260506040029 | 7 | 0.0 | 0.0 | 0.00 | 0.08 | 0.00 | 97 | 1005.0 | |
| 20260506035049 | 7 | 263 | 1.6 | 3.2 | 0.00 | 0.08 | 0.00 | 97 | 1005.1 |
| 20260506034029 | 8 | 0.0 | 0.0 | 0.00 | 0.08 | 0.00 | 97 | 1005.2 | |
| 20260506033031 | 7 | 0.0 | 0.0 | 0.00 | 0.08 | 0.00 | 97 | 1005.3 | |
| 20260506032031 | 8 | 0.0 | 0.0 | 0.00 | 0.08 | 0.00 | 97 | 1005.4 | |
| 20260506031049 | 8 | 156 | 0.0 | 3.2 | 0.00 | 0.08 | 0.00 | 97 | 1005.3 |
| 20260506030029 | 8 | 0.0 | 0.0 | 0.00 | 0.08 | 0.00 | 97 | 1005.3 | |
| 20260506025029 | 8 | 0.0 | 0.0 | 0.00 | 0.08 | 0.00 | 97 | 1005.5 | |
| 20260506024029 | 8 | 156 | 0.0 | 3.2 | 0.00 | 0.08 | 0.00 | 97 | 1005.5 |
| 20260506023049 | 8 | 156 | 0.0 | 3.2 | 0.00 | 0.08 | 0.00 | 97 | 1005.6 |
| 20260506022030 | 8 | 0.0 | 0.0 | 0.00 | 0.08 | 0.00 | 97 | 1005.5 | |
| 20260506021032 | 8 | 0.0 | 0.0 | 0.00 | 0.08 | 0.00 | 97 | 1005.7 | |
| 20260506020051 | 8 | 0.0 | 0.0 | 0.00 | 0.08 | 0.00 | 97 | 1005.8 | |
| 20260506015030 | 9 | 0.0 | 0.0 | 0.00 | 0.08 | 0.00 | 97 | 1005.9 | |
| 20260506014032 | 8 | 0.0 | 0.0 | 0.00 | 0.08 | 0.00 | 97 | 1006.0 | |
| 20260506013049 | 8 | 0.0 | 0.0 | 0.00 | 0.08 | 0.00 | 97 | 1006.1 | |
| 20260506012032 | 8 | 0.0 | 0.0 | 0.00 | 0.08 | 0.00 | 97 | 1006.1 | |
| 20260506011030 | 8 | 0.0 | 0.0 | 0.00 | 0.08 | 0.00 | 97 | 1006.2 | |
| 20260506010031 | 8 | 0.0 | 0.0 | 0.00 | 0.08 | 0.00 | 97 | 1006.3 | |
| 20260506005031 | 8 | 0.0 | 0.0 | 0.00 | 0.08 | 0.00 | 97 | 1006.4 | |
| 20260506004050 | 8 | 0.0 | 0.0 | 0.00 | 0.08 | 0.00 | 97 | 1006.5 | |
| 20260506003030 | 8 | 0.0 | 0.0 | 0.00 | 0.08 | 0.00 | 97 | 1006.4 | |
| 20260506002030 | 8 | 0.0 | 0.0 | 0.00 | 0.08 | 0.00 | 97 | 1006.5 | |
| 20260506001042 | 8 | 0.0 | 0.0 | 0.00 | 0.08 | 0.00 | 97 | 1006.5 | |
| 20260506000029 | 8 | 0.0 | 0.0 | 0.00 | 0.08 | 0.00 | 97 | 1006.5 | |
| 20260505235029 | 8 | 0.0 | 0.0 | 0.00 | 0.08 | 0.00 | 96 | 1006.6 | |
| 20260505234029 | 9 | 0.0 | 0.0 | 0.00 | 0.08 | 0.00 | 96 | 1006.9 | |
| 20260505233030 | 9 | 0.0 | 0.0 | 0.00 | 0.08 | 0.00 | 96 | 1007.0 | |
| 20260505223530 | 9 | 156 | 0.0 | 3.2 | 0.00 | 0.08 | 0.00 | 96 | 1007.2 |
| 20260505222529 | 9 | 0.0 | 0.0 | 0.00 | 0.08 | 0.00 | 96 | 1007.3 | |
| 20260505221530 | 10 | 0.0 | 0.0 | 0.00 | 0.08 | 0.00 | 96 | 1007.2 | |
| 20260505221130 | 10 | 0.0 | 0.0 | 0.00 | 0.08 | 0.00 | 96 | 1007.2 | |
| 20260505215550 | 9 | 0.0 | 0.0 | 0.00 | 0.08 | 0.08 | 96 | 1007.3 | |
| 20260505214530 | 9 | 0.0 | 0.0 | 0.00 | 0.08 | 0.08 | 96 | 1007.4 | |
| 20260505213542 | 9 | 141 | 1.6 | 4.8 | 0.00 | 0.08 | 0.08 | 96 | 1007.4 |
| 20260505212541 | 10 | 0.0 | 0.0 | 0.00 | 0.08 | 0.08 | 96 | 1007.4 | |
| 20260505211530 | 10 | 0.0 | 0.0 | 0.05 | 0.08 | 0.08 | 95 | 1007.6 | |
| 20260505210228 | 10 | 0.0 | 0.0 | 0.05 | 0.08 | 0.08 | 95 | 1007.6 | |
| 20260505205144 | 10 | 0.0 | 0.0 | 0.05 | 0.08 | 0.08 | 95 | 1007.6 | |
| 20260505204354 | -17 | 0.0 | 0.0 | 0.05 | 0.08 | 0.08 |